Probability
0 0 0 0 0 0 0 0 0 0 0 0 0 0 0 0 0 0 0 0 0 0 0 0 0 0 0 0 0 0 0 0 0 0 0 0 0 0 0 0 0 0 0
0 0 0 0 0 0 0 0 0 0 0 0 0 0 0 0 0 0 0 0 0 0 0 0 0 0 0 0 0 0 0 0 0 0 0 0 0 0 0 0 0 0 0
0 0 0 0 0 0 0 0 0 0 0 0 0 0 0 0 0 0 0 0 0 0 0 0 0 0 0 0 0 0 0 0 0 0 0 0 0 0 0 0 0 0 0
0 0 0 0 0 0 0 0 0 0 0 0 0 0 0 0 0 0 0 0 0 0 0 0 0 0 0 0 0 0 0 0 0 0 0 0 0 0 0 0 0 0 0
0 0 0 0 0 0 0 0 0 0 0 0 0 0 0 0 0 0 0 0 0 0 0 0 0 0 0 0 0 0 0 0 0 0 0 0 0 0 0 0 0 0 0
0 0 0 0 0 0 0 0 0 0 0 0 0 0 0 0 0 0 0 0 0 0 0 0 0 0 0 0 0 0 0 0 0 0 0 0 0 0 0 0 0 0 0
0 0 0 0 0 0 0 0 0 0 0 0 0 0 0 0 0 0 0 0 0 0 0 0 0 0 0 0 0 0 0 0 0 0 0 0 0 0 0 0 0 0 0
0 0 0 0 0 0 0 0 0 0 0 0 0 0 0 0 0 0 0 0 0 0 0 0 0 0 0 0 0 0 0 0 0 0 0 0 0 0 0 0 0 0 0
0 0 0 0 0 0 0 0 0 0 0 0 0 0 0 0 0 0 0 0 0 0 0 0 0 0 0 0 0 0 0 0 0 0 0 0 0 0 0 0 0 0 0
0 0 0 0 0 0 0 0 0 0 0 0 0 0 0 0 0 0 0 0 0 0 0 0 0 0 0 0 0 0 0 0 0 0 0 0 0 0 0 0 0 0 0
0 0 0 0 0 0 0 0 0 0 0 0 0 0 0 0 0 0 0 0 0 0 0 0 0 0 0 0 0 0 0 0 0 0 0 0 0 0 0 0 0 0 0
0 0 0 0 0 0 0 0 0 0 0 0 0 0 0 0 0 0 0 0 0 0 0 0 0 0 0 0 0 0 0 0 0 0 0 0 0 0 0 0 0 0 0
0 0 0 0 0 0 0 0 0 0 0 0 0 0 0 0 0 0 0 0 0 0 0 0 0 0 0 0 0 0 0 0 0 0 0 0 0 0 0 0 0 0 0
0 0 0 0 0 0 0 0 0 0 0 0 0 0 0 0 0 0 0 0 0 0 0 0 0 0 0 0 0 0 0 0 0 0 0 0 0 0 0 0 0 0 0
0 0 0 0 0 0 0 0 0 0 0 0 0 0 0 0 0 0 0 0 0 0 0 0 0 0 0 0 0 0 0 0 0 0 0 0 0 0 0 0 0 0 0
0 0 0 0 0 0 0 0 0 0 0 0 0 0 0 0 0 0 0 0 0 0 0 0 0 0 0 0 0 0 0 0 0 0 0 0 0 0 0 0 0 0 0
0 0 0 0 0 0 0 0 0 0 0 0 0 0 0 0 0 0 0 0 0 0 0 0 0 0 0 0 0 0 0 0 0 0 0 0 0 0 0 0 0 0 0
1 0 0 0 0 0 0 0 0 0 0 0 0 0 0 0 0 0 0 0 0 0 0 0 0 0 0 0 0 0 0 0 0 0 0 0 0 0 0 0 0 0 0
2 1 0 0 0 0 0 0 0 0 0 0 0 0 0 0 0 0 0 0 0 0 0 0 0 0 0 0 0 0 0 0 0 0 0 0 0 0 0 0 0 0 0
3 2 1 0 0 0 0 0 0 0 0 0 0 0 0 0 0 0 0 0 0 0 0 0 0 0 0 0 0 0 0 0 0 0 0 0 0 0 0 0 0 0 0
3 3 2 1 0 0 0 0 0 0 0 0 0 0 0 0 0 0 0 0 0 0 0 0 0 0 0 0 0 0 0 0 0 0 0 0 0 0 0 0 0 0 0
3 3 3 2 2 1 0 0 0 0 0 0 0 0 0 0 0 0 0 0 0 0 0 0 0 0 0 0 0 0 0 0 0 0 0 0 0 0 0 0 0 0 0
3 3 3 3 4 3 1 0 0 0 0 0 0 0 0 0 0 0 0 0 0 0 0 0 0 0 0 0 0 0 0 0 0 0 0 0 0 0 0 0 0 0 0
3 3 3 3 4 5 3 2 1 0 0 0 0 0 0 0 0 0 0 0 0 0 0 0 0 0 0 0 0 0 0 0 0 0 0 0 0 0 0 0 0 0 0
3 3 3 3 4 5 6 5 3 1 0 0 0 0 0 0 0 0 0 0 0 0 0 0 0 0 0 0 0 0 0 0 0 0 0 0 0 0 0 0 0 0 0
3 3 3 3 4 6 6 6 5 2 1 0 0 0 0 0 0 0 0 0 0 0 0 0 0 0 0 0 0 0 0 0 0 0 0 0 0 0 0 0 0 0 0
Wind_Speed
5 6 11 14 15 14 14 13 13 13 13 13 13 13 13 13 13 13 12 12 12 13 13 14 14 14 14 14 14 14 14 14 13 13 13 13 12 12 12 12 11 7 12
8 8 12 13 15 14 14 13 13 12 12 12 12 13 13 13 13 12 12 12 12 12 13 13 13 13 13 12 12 12 12 12 12 11 11 10 10 11 11 11 10 7 11
10 8 10 13 14 14 14 13 12 12 12 12 12 12 12 12 12 12 11 11 11 11 12 12 12 12 11 11 11 11 11 10 10 10 9 5 6 10 10 10 10 10 10
10 8 9 12 13 14 14 13 12 12 12 11 11 12 12 11 11 11 11 10 10 10 11 11 11 10 10 10 9 9 9 9 9 9 5 4 4 8 9 9 9 9 9
9 7 9 13 13 14 14 13 12 12 12 11 11 11 11 11 11 10 10 10 9 9 9 9 9 9 9 9 9 9 9 9 9 7 4 4 4 6 7 8 8 8 8
8 7 9 13 13 13 13 13 12 12 12 11 11 11 11 10 10 10 9 9 8 8 8 8 8 7 7 7 8 8 8 8 7 4 4 4 3 5 6 6 6 6 6
8 7 8 12 12 13 13 13 12 12 11 11 11 11 10 10 9 9 8 8 7 7 7 7 6 6 6 6 6 6 6 7 4 3 3 3 3 5 5 5 5 5 5
9 7 7 10 11 11 11 11 11 11 10 10 10 10 9 9 9 8 8 7 7 6 6 5 5 5 5 5 5 5 5 5 4 3 3 3 4 5 4 4 4 4 4
7 7 6 6 8 9 10 10 10 9 9 9 9 8 7 7 7 6 6 6 5 5 4 4 3 3 3 4 4 4 4 4 2 2 2 2 4 5 5 4 4 5 4
6 6 6 5 5 5 6 8 9 9 8 8 8 7 6 6 5 5 5 4 4 4 3 2 2 2 3 3 3 3 3 3 2 2 2 3 6 6 5 6 6 6 6
7 6 6 6 6 5 5 6 7 8 7 7 6 7 5 3 3 3 3 3 3 3 2 1 1 1 2 3 3 3 2 1 1 2 2 6 7 7 7 6 6 6 7
10 9 7 7 7 6 5 4 3 4 4 4 3 4 3 2 2 2 3 3 2 2 1 1 1 1 1 1 2 3 1 1 1 2 3 8 8 8 8 8 8 8 8
9 8 8 7 7 6 4 4 3 2 3 3 4 4 3 2 2 1 1 1 1 1 0 1 1 1 0 1 1 1 2 1 1 2 4 8 9 9 9 9 9 9 9
7 8 7 7 7 6 5 4 4 3 3 3 4 4 3 2 2 2 1 1 1 1 1 1 1 1 2 2 2 2 2 2 2 2 3 7 9 9 10 10 10 10 10
8 8 8 8 8 7 6 4 5 4 4 4 3 4 4 3 3 2 2 2 2 2 2 2 2 2 2 3 2 3 3 3 3 3 3 6 8 9 10 10 10 10 10
8 8 8 9 8 7 6 5 5 5 4 4 4 4 5 4 4 3 3 2 2 2 2 2 3 3 2 2 3 3 3 3 3 3 3 4 6 8 9 10 11 11 11
8 7 8 8 8 8 7 6 5 5 5 4 4 5 5 5 5 4 3 3 3 3 3 2 2 2 2 2 3 4 3 4 4 4 4 3 3 6 8 10 10 10 11
5 7 7 7 8 9 7 6 4 4 4 4 4 4 6 6 5 4 4 4 3 3 2 2 2 2 2 2 3 3 3 3 4 4 3 3 3 3 5 8 9 9 10
6 6 7 7 8 8 7 5 5 4 4 4 4 4 5 6 6 5 4 4 4 3 3 3 2 2 2 3 3 3 3 3 4 3 4 4 3 3 3 5 6 7 8
5 5 6 6 6 6 5 4 3 4 4 4 4 4 5 5 6 5 4 4 4 3 3 3 3 3 2 2 3 3 4 4 3 3 4 3 3 3 2 2 2 3 6
4 5 6 7 6 5 4 5 5 6 5 4 4 5 5 5 6 6 4 4 4 4 4 4 3 3 2 1 1 3 3 3 3 3 2 2 2 2 1 1 1 1 2
5 5 6 7 6 7 6 5 4 3 3 4 3 4 5 6 6 5 6 5 4 4 3 4 3 2 2 2 2 1 4 4 3 2 1 1 2 1 1 1 1 1 1
5 6 6 7 7 7 6 3 2 2 1 2 3 4 5 5 5 5 6 5 5 5 4 5 4 4 4 3 3 3 2 3 3 3 2 1 1 1 1 1 1 1 1
6 5 6 6 6 6 6 5 6 5 6 6 4 4 4 5 5 5 5 5 5 5 5 5 5 4 4 4 3 3 3 3 2 4 3 2 2 2 2 2 1 1 1
2 2 4 5 5 5 6 7 7 6 5 3 2 3 4 4 5 5 5 5 5 5 5 5 5 5 5 4 3 2 3 3 4 4 5 3 2 2 2 2 1 1 1
2 1 1 2 4 4 5 6 7 8 6 4 4 4 4 3 4 5 5 5 5 5 5 5 5 6 5 5 4 3 3 3 3 4 6 4 4 3 2 2 1 1 1
Wind_Direction
169 168 163 149 143 139 134 130 127 124 121 119 118 116 114 110 107 101 98 96 94 94 92 91 88 85 82 79 76 74 72 69 68 68 68 69 69 69 68 65 61 56 63
150 159 156 149 142 139 136 133 131 129 127 124 123 120 116 112 109 105 101 99 97 96 95 92 89 87 84 80 78 75 73 72 71 68 62 59 65 69 68 67 64 63 62
142 151 150 148 143 140 137 135 133 133 131 130 127 122 118 115 113 109 104 103 100 98 97 94 90 86 84 82 80 76 72 72 71 66 55 37 53 69 67 65 62 61 58
143 146 146 145 143 142 142 141 140 137 136 133 130 126 121 119 117 113 108 106 104 103 101 98 91 88 84 80 80 76 71 71 68 60 42 26 27 65 66 63 60 56 53
139 141 145 144 145 146 146 145 144 142 140 136 132 130 126 122 120 116 113 108 105 105 102 98 93 88 85 80 78 76 72 70 64 53 35 24 17 54 60 58 56 51 45
137 139 147 147 149 149 150 150 149 148 145 141 137 133 129 126 122 120 117 114 110 108 103 99 93 87 84 80 77 75 71 69 60 45 29 17 8 37 50 54 52 46 40
141 140 149 150 151 152 153 153 152 151 149 145 141 138 136 132 128 127 125 122 119 115 110 105 97 88 81 75 72 70 67 66 62 45 24 6 5 27 34 39 40 35 28
144 143 150 151 151 152 154 155 153 154 153 150 147 145 143 141 138 137 135 133 128 124 121 113 103 91 81 72 65 60 59 56 52 34 13 355 349 6 17 16 15 11 7
141 143 148 152 153 155 157 157 154 155 155 153 151 147 143 142 142 140 140 140 139 136 132 124 110 96 79 63 53 49 51 54 51 14 353 339 334 344 349 351 347 345 345
147 152 153 151 152 154 157 160 157 158 157 156 153 149 148 149 146 139 142 147 150 149 144 138 119 90 64 46 35 35 35 34 16 347 331 318 326 329 329 330 333 334 330
168 170 165 161 158 156 158 165 162 161 160 158 154 153 148 143 142 140 147 154 158 158 164 169 162 67 46 24 17 19 22 5 331 314 305 307 313 315 316 316 319 321 322
183 184 179 174 170 165 166 158 155 154 156 152 149 150 143 141 147 148 168 175 174 176 198 221 240 8 25 7 353 359 347 308 300 290 292 301 306 309 310 308 310 313 313
186 187 188 183 177 172 167 161 160 157 158 158 160 159 151 147 147 147 146 166 182 189 204 277 324 347 321 298 307 303 292 295 276 279 288 297 301 304 306 306 306 308 308
185 195 192 185 182 181 173 172 169 169 170 175 175 168 160 163 171 174 177 184 183 186 204 219 236 261 274 275 274 279 279 274 269 272 281 290 294 298 302 304 304 305 306
193 197 195 188 188 185 180 181 181 185 184 182 178 178 173 178 187 192 197 200 205 201 206 218 232 249 261 271 272 269 272 268 268 265 278 286 289 295 299 303 306 308 308
201 201 194 191 190 184 186 188 190 190 188 184 186 188 184 186 188 190 197 205 213 211 212 216 229 240 251 261 274 272 268 267 267 266 264 282 288 292 296 301 305 307 309
204 198 196 195 191 190 191 191 190 191 188 193 197 195 194 192 193 194 197 207 214 209 210 216 233 241 255 260 269 270 268 266 268 270 270 269 281 290 292 297 302 306 309
205 196 195 194 193 195 195 191 188 187 190 198 198 196 200 201 198 195 202 214 210 199 202 211 221 236 252 257 266 271 269 273 273 271 269 267 267 275 289 296 300 305 311
206 198 194 194 195 197 195 190 189 184 193 198 198 201 203 203 202 201 208 215 202 201 210 214 219 220 243 258 265 272 273 270 271 274 272 271 266 268 274 297 301 306 310
202 196 196 195 196 192 188 185 189 197 203 201 203 207 203 204 203 204 209 213 199 204 215 216 225 222 227 245 269 280 274 267 264 264 269 273 272 272 269 283 296 308 314
201 196 197 195 194 182 186 194 201 211 210 209 211 210 208 208 204 204 208 209 204 213 219 214 216 222 233 211 272 299 291 269 265 266 266 270 284 283 269 277 284 295 313
211 209 203 201 194 191 197 195 194 192 200 206 207 212 213 212 208 206 209 209 205 211 218 215 207 209 215 179 184 290 315 325 320 298 290 275 283 288 289 298 293 298 310
221 217 211 206 200 198 194 166 141 139 152 192 213 220 221 215 210 208 209 207 206 204 215 217 211 211 224 214 195 190 219 264 305 307 301 293 288 289 287 289 286 299 313
233 223 215 209 202 198 186 181 184 196 211 216 214 216 215 209 210 210 210 209 208 210 216 216 213 215 214 226 219 219 218 196 240 299 298 292 292 273 274 285 296 319 328
266 242 223 213 208 198 190 195 199 210 221 219 199 202 208 209 210 211 211 211 213 215 219 219 216 217 215 220 214 210 226 229 223 245 277 288 292 263 256 253 256 292 328
347 331 279 213 217 206 198 199 203 212 216 213 217 217 218 218 217 216 215 216 217 217 219 221 222 223 223 222 221 214 207 214 218 228 253 267 275 268 255 236 215 236 264